カタログに戻る

FENGYUN 1C DEB

運用中SSO
NORAD 31753·DEBRIS·🇨🇳 China

打ち上げ May 10, 1999 から Taiyuan Satellite Launch Center

Loading…

次のパス (今後24時間)

TLE

最新Source: Space-Track

元期: Sep 14, 2026, 13:36 UTC

1 31753U 99025CFC 26257.56717255  .00000323  00000-0  15406-3 0  9991
2 31753  98.6032 288.0553 0159664  98.5859  51.8690 14.18937476999304

AllMySatでFENGYUN 1C DEBをリアルタイム追跡

Download on the App Store